TDRS 7

Last updated on Tue Sep 22 2026 00:03:06 GMT+0000 (Coordinated Universal Time)

1 23613U 95035B 26264.60530981 -.00000236 00000+0 00000+0 0 9999 2 23613 13.2980 347.5172 0010700 98.5449 221.5836 1.00271604114213
UTC large
Height (km)
Speed (km/s)
/
Latitude / Longitude
Inclination (degrees)
Orbital Period (minutes)
Azimuth
Elevation
Range (km)
Doppler Factor

Next 0 passes for location: London (51.5072 / 0.1276)

No passes found over London.
TDRS 7